COSMOS 1275 DEB, 42180

Orbit data source: Space-Track

COSMOS 1275 DEB, 42180 is space debris in LEO originally from a launch on Thu, 04 Jun 1981 UTC launched from the Plesetsk Missile And Space Complex (PKMTR). Debris objects in space refer to the collection of defunct objects orbiting the Earth. Examples of debris include non-operational satellites, rocket bodies, and fragments generated from explosions, collisions, or faulty payload assembly.

Loading next visibility...
Identifier
42180, 1981-053SU
Orbit
LEO
Country
Flag of CISCIS
Related business
Manufacturer
Unknown
Mission
Spacecraft
Bus & Motor
Unknown
Mass
Unknown
Launch date (UTC)
1981-06-04 (45 years ago)
Launch vehicle
Unknown
Launch site
Plesetsk Missile And Space Complex (PKMTR)
Object type
Payload
Rocket body
Debris
Shape & HBR
Unknown shape, 0.1 m
Radar Cross Section
Small (<0.1 m²)

Expand to show TLE details & history
Last TLE update: 1 day ago

TLE from 1 day ago
0 COSMOS 1275 DEB
1 42180U 81053SU  26126.40362832  .00038874  00000-0  34172-2 0  9996
2 42180  82.8533 352.4388 0005879 157.5351  18.5947 14.96354288622481
Epoch: 2026-05-06T09:41Z
TLE epoch observation values (Epoch: 2026-05-06T09:41:13.486Z)
Latitude
3.72127°
Longitude
162.40329°
Altitude
576.955 km
Speed
7.575 km/s
True Right ascension
11h 27m 53s
True Declination
3° 41' 55"
Sunlit
Object was in full shadow at epoch
Visualization orbit readout
Latitude
Unknown
Longitude
Unknown
Altitude
Unknown
Speed
Unknown
Apparent Right ascension
Unknown
Apparent Declination
Unknown
Sunlit
N/A
Visualization observer readout
Local Sidereal Time
21:41:49
Azimuth
Unknown
Elevation
Unknown
Doppler factor
Unknown
Orbital elements
Apogee altitude
579.247 km
Perigee altitude
571.071 km
Semi-major axis
6,953.296 km
Eccentricity
0.00059
Inclination
82.8533°
RAAN
352.4388°
Arg. of periapsis
157.5351°
True anomaly
18.6162°
Mean anomaly
18.5947°
Eccentric anomaly
18.60545°
Mean motion
3.74332 °/min
Orbital period
96.17 mins
BSTAR
0.0034172
Loading maneuver chart data...
Computing Atmospheric mass density...

Documentation

Showing up to 5 results
|